Regional Weather Roundup
Issued by NWS

Home | Current Version | Previous Version | Text Only | Print | Product List | Glossary Off
Versions: 1 2 3 4 5 6 7 8 9 10 11 12 13 14 15 16 17 18 19 20 21 22 23 24 25 26 27 28 29 30 31 32 33 34 35 36 37 38 39 40 41 42 43 44 45 46 47 48 49 50

000
ASUS43 KDTX 261901
RWRMI
MICHIGAN HOURLY REGIONAL WEATHER ROUNDUP
NATIONAL WEATHER SERVICE DETROIT/PONTIAC MI
300 PM EDT FRI MAY 26 2017

NOTE: "FAIR" INDICATES FEW OR NO CLOUDS BELOW 12,000 FEET WITH NO
SIGNIFICANT WEATHER AND/OR OBSTRUCTION TO VISIBILITY.

MIZ047>049-052>055-059>063-066>070-074>076-081>083-262000-
SOUTHEAST LOWER MICHIGAN

CITY           SKY/WX    TMP DP  RH WIND       PRES   REMARKS
ADRIAN         MOSUNNY   71  54  54 NW5       29.85F
ALMA           CLOUDY    68  53  58 CALM      29.86S
ANN ARBOR      CLOUDY    68  55  63 W8        29.85F
BAD AXE        CLOUDY    62  53  74 NW8       29.84S
CARO           CLOUDY    64  55  71 NW7       29.85R
DETROIT CITY   CLOUDY    64  53  67 NW7       29.86S
DETROIT        CLOUDY    68  54  60 W10       29.86F
FLINT          CLOUDY    64  53  67 NW5       29.86S
GROSSE ILE     CLOUDY    67  52  58 NW7       29.85S
HILLSDALE      SUNNY     68  52  56 N8        29.85S
HOWELL         CLOUDY    65  49  57 NW7       29.86S

CITY           SKY/WX    TMP DP  RH WIND       PRES   REMARKS
JACKSON        MOSUNNY   69  53  56 VRB5      29.85F
LAMBERTVILLE   MOSUNNY   70  54  57 W5        29.84F
LANSING        CLOUDY    70  51  51 N5        29.86F
LAPEER         CLOUDY    63  53  69 W7        29.86S
MASON          CLOUDY    66  54  66 N3        29.85F
MONROE         CLOUDY    68  54  59 NW6       29.84F
MT. CLEMENS    PTSUNNY   65  56  71 W10       29.84S
PONTIAC        CLOUDY    62  52  69 W7        29.85S
PORT HOPE        N/A     58  54  86 N5        29.83S
PORT HURON     CLOUDY    63  54  72 NW5       29.85S
TRI CITIES     CLOUDY    65  54  67 SW6       29.85S
MIDLAND        CLOUDY    66  51  58 CALM      29.84S
TROY           CLOUDY    64  51  63 NW5       29.87S
SAGINAW HB     CLOUDY    68  50  52 W6        29.84S
$$
MIZ043>046-050>051-056>058-064>065-071>073-077>080-262000-
SOUTHWEST LOWER MICHIGAN

CITY           SKY/WX    TMP DP  RH WIND       PRES   REMARKS
BATTLE CREEK   PTSUNNY   70  54  56 NE3       29.85F
BENTON HARBOR  CLOUDY    67  51  56 VRB3      29.85R
BIG RAPIDS     CLOUDY    68  49  50 CALM      29.83S
COLDWATER      MOSUNNY   70  55  57 CALM      29.86R
FREMONT        FAIR      70  47  43 E5        29.82F
HOLLAND        CLOUDY    71  52  50 CALM      29.85S
GRAND RAPIDS   CLOUDY    69  54  58 E5        29.83F
IONIA          PTSUNNY   68  51  53 CALM      29.83F
KALAMAZOO      MOSUNNY   71  51  49 SW6       29.85R
LUDINGTON      MOSUNNY   65  55  69 NW3       29.84F
MARSHALL       CLOUDY    69  55  60 CALM      29.84F
MOUNT PLEASANT CLOUDY    67  52  57 CALM      29.84S
MUSKEGON       PTSUNNY   64  52  64 SW10      29.84F
SOUTH HAVEN    CLOUDY    67  56  67 NW6       29.85R
$$
MIZ016>042-262000-
NORTHERN LOWER MICHIGAN

CITY           SKY/WX    TMP DP  RH WIND       PRES   REMARKS
ALPENA         PTSUNNY   66  52  60 NW6       29.83F
BEAVER ISLAND  CLOUDY    60  51  72 SW10      29.85R
BELLAIRE       CLOUDY    65  51  60 W6        29.83S
CADILLAC       CLOUDY    65  51  60 S3        29.84S
CHARLEVOIX     CLOUDY    57  52  82 W8        29.87F
FRANKFORT      MOSUNNY   65  52  63 W8        29.85S
GAYLORD        CLOUDY    68  49  50 VRB5      29.83F
GRAYLING       CLOUDY    67  50  53 E3        29.84S
HARBOR SPRINGS MOSUNNY   53  49  85 SW5       29.84S
HOUGHTON LAKE  CLOUDY    66  50  56 SW8       29.84S
MANISTEE       CLOUDY    62  52  69 NW12      29.85R
OSCODA         CLOUDY    64  56  75 E6        29.82F
PELLSTON       MOSUNNY   71  47  42 NE8       29.83S
ROGERS CITY    SUNNY     64  53  68 CALM      29.85S
TRAVERSE CITY  CLOUDY    68  51  54 NE8       29.83S
$$
MIZ007>008-015-262000-
EASTERN UPPER MICHIGAN

CITY           SKY/WX    TMP DP  RH WIND       PRES   REMARKS
KINROSS        CLOUDY    69  52  54 CALM      29.82S
MACKINAC ISLAN MOSUNNY   66  50  56 SW7       29.83R
NEWBERRY       PTSUNNY   72  48  42 E5        29.81S
S. S. MARIE    PTSUNNY   72  54  53 N8        29.80F
MUNISING         N/A     53  48  83 N3        29.82S
$$
MIZ004>006-011>014-085-262000-
CENTRAL UPPER MICHIGAN

CITY           SKY/WX    TMP DP  RH WIND       PRES   REMARKS
MANISTIQUE     PTSUNNY   63  50  61 S10       29.83F
ESCANABA       SUNNY     65  52  62 S10       29.85S
MENOMINEE      MOSUNNY   66  54  65 SE8       29.85S
SAWYER-GWINN   PTSUNNY   68  50  52 S7        29.83S
$$
MIZ001>003-009>011-084-262000-
WESTERN UPPER MICHIGAN

CITY           SKY/WX    TMP DP  RH WIND       PRES   REMARKS
IRON MOUNTAIN  CLOUDY    70  51  51 S8        29.81S
HOUGHTON       CLOUDY    65  50  58 E9        29.79F
COPPER HARBOR    N/A     65  49  56 SW8       29.79F
IRONWOOD       CLOUDY    68  53  58 SE8       29.77F
$$

ABBREVIATIONS USED IN REMARKS
   TC - TEMPERATURE IN CELSIUS
  WCI - WIND CHILL INDEX
   HX - HEAT INDEX
  VSB - VISIBILITY




USA.gov is the U.S. government's official web portal to all federal, state and local government web resources and services.